Regional Weather Roundup
Issued by NWS

Home | Current Version | Previous Version | Graphics & Text | Print | Product List | Glossary On
Versions: 1 2 3 4 5 6 7 8 9 10 11 12 13 14 15 16 17 18 19 20 21 22 23 24 25 26 27 28 29 30 31 32 33 34 35 36 37 38 39 40 41 42 43 44 45 46 47 48 49 50
000
ASUS43 KFSD 230302
RWRSD

WEATHER ROUNDUP FOR SOUTH DAKOTA
NATIONAL WEATHER SERVICE SIOUX FALLS SD
900 PM CST WED FEB 22 2017

NOTE: "FAIR" INDICATES FEW OR NO CLOUDS BELOW 12,000 FEET WITH NO
SIGNIFICANT WEATHER AND/OR OBSTRUCTIONS TO VISIBILITY.


SDZ001>005-009-010-012>017-230400-
NORTHWEST AND NORTH CENTRAL SOUTH DAKOTA

CITY           SKY/WX    TMP DP  RH WIND       PRES   REMARKS
BUFFALO          N/A     32  30  92 NE6       29.87R WCI  26
FAITH            N/A     31  31 100 N13       29.92S WCI  21
MOBRIDGE       CLOUDY    34  27  75 N8        29.93R WCI  27
$$

SDZ012>016-024>037-041>051-057-063-072>074-230400-
SOUTHWEST AND SOUTH CENTRAL SOUTH DAKOTA

CITY           SKY/WX    TMP DP  RH WIND       PRES   REMARKS
RAPID CTY ARPT CLOUDY    33  27  78 N18       29.88S WCI  22
PIERRE         CLOUDY    35  30  82 N17       29.91R WCI  25
CUSTER         CLOUDY    31  22  69 N10       29.79F WCI  22
ELLSWORTH AFB  CLOUDY    33  28  81 N18       29.88  WCI  22
PHILIP         CLOUDY    35  30  82 N14       29.93R WCI  26
PINE RIDGE     MOCLDY    38  31  76 NE13      29.87R
SPEARFISH      CLOUDY    32  28  86 NE8       29.90F WCI  25
WINNER         CLOUDY    39  33  79 N16G25    29.89R
$$

SDZ004>011-016>023-039-040-230400-
NORTHEAST SOUTH DAKOTA

CITY           SKY/WX    TMP DP  RH WIND       PRES   REMARKS
ABERDEEN       CLOUDY    32  25  75 N14       29.95R WCI  22
WATERTOWN      CLOUDY    31  28  89 N17       29.85R WCI  19
BROOKINGS      CLOUDY    33  30  88 N16       29.82R WCI  23
SISSETON         N/A     32  29  88 N15       29.89R WCI  22
$$

SDZ017-020-022-023-036>040-048>070-230400-
SOUTHEAST SOUTH DAKOTA

CITY           SKY/WX    TMP DP  RH WIND       PRES   REMARKS
SIOUX FALLS    PTCLDY    38  36  92 N9        29.82R
HURON          CLOUDY    34  31  88 N18       29.89R WCI  23
CHAMBERLAIN    CLOUDY    38  37  95 N14       29.90R
MITCHELL       CLOUDY    37  34  89 N15       29.89R
YANKTON        CLEAR     43  36  75 NW14      29.83R
$$

ABBREVIATIONS USED IN REMARKS
   TC - TEMPERATURE IN CELSIUS
  WCI - WIND CHILL INDEX
   HX - HEAT INDEX
  VSB - VISIBILITY





USA.gov is the U.S. government's official web portal to all federal, state and local government web resources and services.